Regional Weather Roundup
Issued by NWS

Home | Current Version | Previous Version | Graphics & Text | Print | Product List | Glossary On
Versions: 1 2 3 4 5 6 7 8 9 10 11 12 13 14 15 16 17 18 19 20 21 22 23 24 25 26 27 28 29 30 31 32 33 34 35 36 37 38 39 40 41 42 43 44 45 46 47 48 49 50
000
ASUS43 KOAX 271002
RWRNE

WEATHER ROUNDUP FOR NEBRASKA
NATIONAL WEATHER SERVICE OMAHA NE
500 AM CDT MON MAR 27 2017

NOTES: SATELLITE DATA IS BEING USED TO AUGMENT CLOUD COVER ABOVE
       12000 FEET.
       "FAIR" INDICATES FEW OR NO CLOUDS BELOW 12,000 FEET WITH NO
       SIGNIFICANT WEATHER AND/OR OBSTRUCTIONS TO VISIBILITY.

  * THESE STATIONS DO NOT REPORT WEATHER SUCH AS RAIN...SNOW OR FOG.

NEZ001>004-019>022-054>056-271100-
NEBRASKA PANHANDLE

CITY           SKY/WX    TMP DP  RH WIND       PRES   REMARKS
SCOTTSBLUFF    CLEAR     27  24  89 CALM      29.92F
ALLIANCE       CLEAR     25  23  92 W5        29.90F WCI  19
CHADRON        FOG       31  30  96 CALM      29.91S VSB 1/2
KIMBALL        CLEAR     28  28 100 CALM      29.93F
SIDNEY         CLEAR     28  26  92 W7        29.93S WCI  21
$$

NEZ057>060-069>072-079>082-271100-
SOUTHWEST NEBRASKA

CITY           SKY/WX    TMP DP  RH WIND       PRES   REMARKS
NORTH PLATTE   FOG       35  33  92 SE3       29.91S VSB 1/4
IMPERIAL       CLEAR     36  32  85 NW8       29.91S WCI  30
LEXINGTON      FOG       34  33  95 NW3       29.93R VSB 1/2
MCCOOK         CLEAR     34  33  96 CALM      29.92F
OGALLALA       CLOUDY    33  32  96 W6        29.91S WCI  27
$$

NEZ005>010-023>029-035>040-094-271100-
NORTH CENTRAL NEBRASKA

CITY           SKY/WX    TMP DP  RH WIND       PRES   REMARKS
VALENTINE      CLOUDY    30  28  92 W5        29.92S WCI  25
AINSWORTH      FOG       30  30 100 CALM      29.92S VSB 1/4
BROKEN BOW     HAZE      41  32  70 CALM      29.92S VSB 1/2
O`NEILL        CLOUDY    42  39  91 CALM      29.94S
ORD            CLOUDY    44  40  85 CALM      29.93R
THEDFORD       FOG       40  40  98 CALM      29.91F VSB 1/4
$$

NEZ041-046>049-061>064-073>077-083>087-271100-
SOUTH CENTRAL NEBRASKA

CITY           SKY/WX    TMP DP  RH WIND       PRES   REMARKS
GRAND ISLAND   CLOUDY    43  43 100 NE9       29.93S
AURORA         CLOUDY    42  42 100 N7        29.92F
HASTINGS       CLOUDY    44  43  96 NE8       29.93R
HEBRON         CLOUDY    44  43  96 NE7       29.92F FOG
HOLDREGE       FOG       40  39  97 N3        29.94R VSB 1/4
KEARNEY *      MOCLDY    43  39  87 NW5       29.94R
YORK           CLOUDY    43  43 100 NE7       29.93S
$$

NEZ011>018-030>034-042>045-271100-
NORTHEAST NEBRASKA

CITY           SKY/WX    TMP DP  RH WIND       PRES   REMARKS
NORFOLK        CLOUDY    42  40  92 CALM      29.92F
ALBION         CLOUDY    44  41  88 N5        29.94R
BLAIR          CLOUDY    44  42  92 N8        29.93S
FREMONT        CLOUDY    43  42  96 CALM      29.96R
TEKAMAH        CLOUDY    44  40  85 N5        29.96R
WAYNE          CLOUDY    42  41  99 CALM      29.94S
$$

NEZ050>053-065>068-078-088>093-271100-
SOUTHEAST NEBRASKA

CITY           SKY/WX    TMP DP  RH WIND       PRES   REMARKS
LINCOLN        CLOUDY    45  42  89 N8        29.96R
OMAHA EPPLEY   LGT RAIN  46  41  82 N7        29.93S
BEATRICE       LGT RAIN  45  44  97 N6        29.92S
FALLS CITY     CLOUDY    47  44  90 N8        29.90R
NEBRASKA CITY  CLOUDY    45  43  95 N7        29.91S
PLATTSMOUTH    CLOUDY    45  41  86 CALM      29.93R
$$

NEZ044-045-051>053-067-271100-
OMAHA AREA

CITY           SKY/WX    TMP DP  RH WIND       PRES   REMARKS
OMAHA EPPLEY   LGT RAIN  46  41  82 N7        29.93S
BLAIR          CLOUDY    44  42  92 N8        29.93S
FREMONT        CLOUDY    43  42  96 CALM      29.96R
MILLARD        DRIZZLE   47  44  90 N6        29.94F
OFFUTT AFB     CLOUDY    46  42  85 N3        29.93R
PLATTSMOUTH    CLOUDY    45  41  86 CALM      29.93R
WAHOO          DRIZZLE   43  42  95 N8        29.95R
$$




USA.gov is the U.S. government's official web portal to all federal, state and local government web resources and services.